Weather in Miami

United States     25˚47′32″N   80˚15′03″W
temp.,
°C
wind,
m/s
gust,
m/s
humid.,
%
clouds,
%
prec.,
mm/h
press.,
hPa
HPBL,
m
2 december, wed
wed201:00+16˚n56440 0.0 1021407
04:00+15˚n57480 0.0 1021339
07:00+14˚n68550 0.0 1023352
10:00+18˚n68570 0.0 1024500
13:00+22˚nne78470 0.0 10231152
16:00+22˚ne89510 0.0 10211173
19:00+21˚ne89580 0.0 10231123
22:00+21˚ne78560 0.0 10231120
3 december, thu
thu301:00+20˚ne685916 0.0 10221092
04:00+20˚ene68610 0.0 1021960
07:00+20˚ene68610 0.0 1021849
10:00+22˚e78550 0.0 10231129
13:00+23˚e78560 0.0 10211206
16:00+23˚e67563 0.0 10201252
19:00+22˚e785923 0.0 10211303
22:00+22˚e786120 0.0 10211310
4 december, fri
fri401:00+22˚e676248 0.0 10211189
04:00+22˚e566113 0.0 1020771
07:00+22˚e566341 0.0 1021625
10:00+24˚ese665919 0.0 10211130
13:00+24˚se555413 0.0 10201161
16:00+24˚ese45570 0.0 1017981
19:00+24˚ese566228 0.0 1019833
22:00+24˚se346059 0.0 1019716
5 december, sat
sat501:00+23˚sse456431 0.0 1018520
04:00+23˚ssw236848 0.0 1017373
07:00+23˚ssw247247 0.0 1018353
10:00+25˚ssw346798 0.0 1019626
13:00+27˚ssw355899 0.0 10171139
16:00+27˚sw355999 0.1 10151096
19:00+26˚wsw5671100 0.3 1016682
22:00+24˚wsw347755 0.0 1017353
6 december, sun
sun601:00+24˚wnw348047 0.0 1016417
04:00+22˚nnw567659 0.0 1015353
07:00+20˚nnw456156 0.0 1016292
10:00+22˚n335144 0.0 1017354
13:00+24˚ne115071 0.0 1015541
16:00+24˚nw1254100 0.0 1014649
19:00+24˚nnw4453100 0.1 1015658
22:00+22˚nnw5642100 0.0 1016541